Погода в Цингалах

Россия / Ханты-Мансийский автономный округ - Югра     60°10′35″N   69°42′18″E
темп.,
°C
ветер,
м/с
пор.,
м/с
влажн.,
%
обл.,
%
осадки,
мм/ч
давл.,
гПа
погр.,
м
8 августа, пн
пн823:00+17всв116866 0.0 101811
02:00+17в1172100 0.0 101811
05:00+16в117639 0.0 101911
08:00+22с235654 0.0 1019314
11:00+26ссв234367 0.0 10191248
14:00+28св23395 0.0 10181887
17:00+28ссв23405 0.0 10171933
20:00+22всв11630 0.0 101811
9 августа, вт
вт923:00+19ююв22700 0.0 101826
02:00+17ююз22790 0.0 101825
05:00+16ююз22830 0.0 101836
08:00+23ююз23602 0.0 1018277
11:00+28зюз23414 0.0 10171159
14:00+31сз23365 0.0 10162317
17:00+30с33381 0.0 10151902
20:00+22св14716 0.3 1015122
10 августа, ср
ср1023:00+18с239086 2.1 101656
02:00+17ссв3109677 0.4 1017256
05:00+16ссв3109512 0.6 1018318
08:00+18св487419 0.0 1019390
11:00+23св563880 0.0 10191158
14:00+24св563278 0.0 10191623
17:00+23св453898 0.0 10191717
20:00+18св22635 0.0 102029
11 августа, чт
чт1123:00+15всв27675 0.0 1020131
02:00+13в277020 0.0 1020146
05:00+12в246713 0.0 102087
08:00+18в244759 0.0 1020328
11:00+22вюв34345 0.0 10181305
14:00+24юв34325 0.0 10161599
17:00+24ю353711 0.0 10141494
20:00+19юв3861100 0.0 1013144
12 августа, пт
пт1223:00+18ююв41260100 0.0 1011322
02:00+16ю41380100 0.4 1010370
05:00+14ююв3994100 0.9 1009264
08:00+16ю389399 0.1 1008324
11:00+18ююз3692100 0.1 1007403
14:00+21юз358099 1.9 1005764
17:00+19зсз2588100 4.6 1004412
20:00+15ссз3695100 0.1 1004347